Torna al catalogo

STARLINK-38082

AttivoComunicazioniSSO
NORAD 69993·PAYLOAD·🇺🇸 United States

Lanciato Jul 11, 2026 da Vandenberg Space Force Base

Loading…

Prossimi Passaggi (prossime 24 ore)

TLE

AggiornatoSource: CelesTrak SupGP

Epoca: Sep 15, 2026, 03:34 UTC

1 69993C 26159U   26258.14909722 -.02677200  00000+0 -46430-1 0  2587
2 69993  97.2850  99.9198 0002203  87.9250 104.1044 15.52275702    13

Traccia STARLINK-38082 in tempo reale con AllMySat

Download on the App Store